This demonstration page uses our WeatherBlox Daily Observations layout. Learn more.

Left ArrowRight Arrow

Hourly Observations for June 10, 2021

Temp ( °F °C ) Dew Point ( °F °C ) Humidity (%) Winds ( mph kmh ) Pressure ( in mb ) Visibility ( mi km ) Precip ( " mm )
12:53 am 00:53 Clear 70 21.1 69 20.6 97 97 E 3 6 29.99 1016 10 16 N/A
1:53 am 01:53 Cloudy 70 21.1 69 20.6 97 97 N N/A 29.99 1016 10 16 N/A
2:37 am 02:37 Cloudy 70 21.1 69 20.6 97 97 ENE 3 6 29.98 1015 10 16 N/A
2:53 am 02:53 Cloudy 70 21.1 69 20.6 97 97 ENE 3 6 29.98 1015 10 16 N/A
3:24 am 03:24 Cloudy 70 21.1 69 20.6 97 97 N N/A 29.97 1015 10 16 N/A
3:40 am 03:40 Cloudy 70 21.1 69 20.6 97 97 E 3 6 29.97 1015 10 16 N/A
3:53 am 03:53 Cloudy 70 21.1 69 20.6 97 97 N N/A 29.97 1015 10 16 N/A
4:12 am 04:12 Mostly Cloudy 69 20.6 68 20 96 96 N N/A 29.96 1015 10 16 N/A
4:53 am 04:53 Cloudy 69 20.6 68 20 96 96 E 3 6 29.96 1015 10 16 N/A
5:53 am 05:53 Cloudy 69 20.6 68 20 96 96 N N/A 29.96 1014 7 11 N/A
6:10 am 06:10 Cloudy 70 21.1 69 20.6 97 97 N N/A 29.95 1014 7 11 N/A
6:19 am 06:19 Cloudy 70 21.1 69 20.6 97 97 ESE 3 6 29.95 1014 7 11 N/A
6:29 am 06:29 Cloudy 69 20.6 68 20 96 96 E 3 6 29.95 1014 7 11 N/A
6:53 am 06:53 Cloudy 70 21.1 69 20.6 97 97 N N/A 29.96 1015 7 11 N/A
7:06 am 07:06 Cloudy 70 21.1 69 20.6 97 97 N N/A 29.96 1015 7 11 N/A
7:16 am 07:16 Cloudy 70 21.1 69 20.6 97 97 N N/A 29.96 1015 8 13 N/A
7:53 am 07:53 Cloudy 71 21.7 69 20.6 94 94 E 3 6 29.96 1014 9 14 N/A
8:16 am 08:16 Cloudy 72 22.2 69 20.6 91 91 N N/A 29.95 1014 10 16 N/A
8:53 am 08:53 Cloudy 73 22.8 69 20.6 87 87 N N/A 29.96 1014 10 16 N/A
9:53 am 09:53 Mostly Cloudy 76 24.4 70 21.1 82 82 N N/A 29.96 1015 10 16 N/A
10:53 am 10:53 Partly Cloudy 78 25.6 70 21.1 76 76 E 5 7 29.95 1014 10 16 N/A
11:53 am 11:53 Mostly Cloudy 81 27.2 68 20 65 65 N N/A 29.95 1014 10 16 N/A
12:53 pm 12:53 Cloudy 82 27.8 70 21.1 67 67 N N/A 29.93 1014 10 16 N/A
1:02 pm 13:02 Cloudy 82 27.8 69 20.6 65 65 N N/A 29.92 1013 10 16 N/A
1:53 pm 13:53 Cloudy 82 27.8 70 21.1 67 67 ESE 3 6 29.92 1013 10 16 N/A
2:53 pm 14:53 Mostly Cloudy with Light Rain 84 28.9 69 20.6 61 61 VRB 5 7 29.90 1013 10 16 0.00 0.00
3:53 pm 15:53 Partly Cloudy with Light Rain 84 28.9 71 21.7 65 65 N N/A 29.88 1012 10 16 0.00 0.00
4:53 pm 16:53 Cloudy with Light Rain 81 27.2 71 21.7 72 72 N N/A 29.86 1011 10 16 0.00 0.00
5:53 pm 17:53 Mostly Cloudy with Light Rain 82 27.8 72 22.2 72 72 N N/A 29.87 1011 10 16 0.00 0.00
6:53 pm 18:53 Partly Cloudy 79 26.1 74 23.3 85 85 N N/A 29.86 1011 10 16 0.00 0.00
7:53 pm 19:53 Partly Cloudy 80 26.7 72 22.2 76 76 W 3 6 29.85 1011 10 16 0.00 0.00
8:53 pm 20:53 Sunny 76 24.4 72 22.2 88 88 N N/A 29.85 1011 10 16 N/A
9:53 pm 21:53 Mostly Cloudy 74 23.3 73 22.8 97 97 N N/A 29.85 1011 8 13 N/A
10:53 pm 22:53 Mostly Clear 73 22.8 71 21.7 94 94 N N/A 29.85 1011 8 13 N/A
11:53 pm 23:53 Mostly Cloudy 73 22.8 72 22.2 96 96 N N/A 29.85 1011 8 13 N/A

Powered by AerisWeather